Flag for Brazil Weather past 2 weeks in Campo Grande, Mato Grosso Do Sul, Brazil

Now
73 °F

Passing clouds.


Feels Like: 73 °F
Forecast: 68 / 85 °F
Wind: 3 mph from Northeast

Location: Campo Grande Aeroporto

Current Time: Jan 26, 2015 at 12:02:38 AM

Latest Report: Jan 25, 2015 at 11:00 PM


Visibility: N/A

Pressure: 29.98 "Hg

Humidity: 83%

Dew point: 68 °F

Location of Campo GrandeLocation

Historic Weather in Campo Grande — Graph

°F

Campo Grande temperature yesterday

Maximum temperature yesterday: 82 °F (at 4:00 PM)
Minimum temperature yesterday: 70 °F (at 6:00 AM)
Average temperature yesterday: 76 °F

Past Weeks' High & Low Weather Summary

 TemperatureHumidityPressure
High93 °F (Jan 17, 6:00 PM)100% (Jan 13, 3:00 AM)30.12 "Hg (Jan 13, 3:00 AM)
Low32 °F (Jan 14, 7:00 AM)17% (Jan 20, 6:00 PM)29.83 "Hg (Jan 20, 5:00 PM)
Average78 °F72%29.97 "Hg
* Reported Jan 10 11:00 PM — Jan 25 11:00 PM, Campo Grande, Weather by CustomWeather, © 2014

Note: Actual official high and low records may vary slightly from our data, if they occured in-between our weather recording intervals... More about our weather records

Advertising

Campo Grande weather history for previous 24 hours

 ConditionsComfort  
Time TempWeatherWind HumidityBarometerVisibility
11:00 PM
Jan 25
73 °FPassing clouds.3 mph83%29.98 "HgN/A
10:00 PM73 °FThundershowers. Passing clouds.5 mph83%N/AN/A
9:00 PM73 °FPassing clouds.5 mph83%29.95 "HgN/A
8:00 PM75 °FThundershowers. Passing clouds.5 mph83%N/AN/A
7:00 PM79 °FBroken clouds.7 mph74%29.89 "HgN/A
6:00 PM81 °FScattered showers. Broken clouds.8 mph70%N/AN/A
5:00 PM81 °FScattered clouds.9 mph66%29.89 "HgN/A
4:00 PM82 °FScattered showers. Scattered clouds.8 mph62%N/AN/A
3:00 PM81 °FScattered clouds.12 mph62%29.92 "HgN/A
2:00 PM81 °FScattered clouds.13 mph66%29.95 "HgN/A
1:00 PM79 °FPartly sunny.13 mph74%29.95 "HgN/A
12:00 PM81 °FPartly sunny.15 mph70%29.98 "HgN/A
11:00 AM81 °FScattered clouds.14 mph70%29.98 "HgN/A
10:00 AM81 °FPassing clouds.6 mph62%29.98 "HgN/A
9:00 AM77 °FPassing clouds.5 mph65%29.95 "HgN/A
8:00 AM73 °FScattered clouds.6 mph69%29.95 "HgN/A
7:00 AM72 °FThundershowers. Scattered clouds.9 mph83%N/AN/A
6:00 AM70 °FThundershowers. Passing clouds.6 mph88%N/AN/A
5:00 AM72 °FThundershowers. Passing clouds.7 mph88%N/AN/A
4:00 AM72 °FPassing clouds.6 mph83%29.89 "HgN/A
3:00 AM73 °FPassing clouds.8 mph78%29.89 "HgN/A
2:00 AM73 °FPassing clouds.7 mph78%29.89 "HgN/A
1:00 AM73 °FPassing clouds.3 mph78%29.92 "HgN/A
12:00 AM75 °FPassing clouds.5 mph74%29.92 "HgN/A
Weather by CustomWeather, © 2014

See weather overviewHow to use our weather pages